Location: Bothwell
(42.3833°S, 147.0000°E)
Time: 09:58:35
(UTC+10:00)

UNISAT 6 - Pass Details

Date: 08 August 2024
Orbit: 589 x 662 km, 97.7° (Epoch: 14 September)

Event Time Altitude Azimuth Distance (km) Brightness Sun altitude
Rises 04:39:33 0° 166° (SSE) 3,039 ? -28.8°
Reaches altitude 10° 04:41:49 10° 163° (SSE) 2,122 ? -28.4°
Enters shadow 04:46:00 64° 119° (ESE) 750 ? -27.6°
